PERPET Weather Reports


time (UTC)temp
F
wind
direction
speed
knots
gust
knots
rain 1hr
in
rain 24hr
in
rain mn
in
humidity
%
barometer
mb
20260506080756 50 263 0.0 3.5 0.00 0.03 0.00 1018.4
20260506080256 50 260 0.0 4.3 0.00 0.03 0.00 1018.4
20260506073256 51 0 0.0 0.0 0.00 0.03 0.00 1018.1
20260506072756 51 0 0.0 0.0 0.00 0.03 0.00 1018.1
20260506072256 51 0 0.0 0.0 0.00 0.03 0.00 1018.0
20260506071755 51 0 0.0 0.0 0.00 0.03 0.00 1017.8
20260506071255 51 0 0.0 0.0 0.00 0.03 0.00 1017.8
20260506070756 51 0 0.0 0.0 0.00 0.03 0.00 1017.8
20260506070255 51 0 0.0 0.0 0.00 0.03 0.03 1017.7
20260506062257 51 0 0.0 0.0 0.00 0.03 0.03 1017.7
20260506061755 51 0 0.0 0.0 0.00 0.03 0.03 1017.7
20260506061255 51 0 0.0 0.0 0.00 0.03 0.03 1017.7
20260506060755 51 0 0.0 0.0 0.00 0.03 0.03 1017.7
20260506060255 51 0 0.0 0.0 0.00 0.03 0.03 1017.7
20260506051255 52 0 0.0 0.0 0.00 0.03 0.03 1017.5
20260506050755 51 0 0.0 0.0 0.00 0.03 0.03 1017.5
20260506050255 51 0 0.0 0.0 0.00 0.03 0.03 1017.5
20260506044756 51 0 0.0 1.7 0.00 0.03 0.03 1017.3
20260506044255 51 0 0.0 1.7 0.00 0.03 0.03 1017.3
20260506043755 51 25 0.0 1.7 0.00 0.03 0.03 1017.3
20260506043256 51 0 0.0 0.0 0.00 0.03 0.03 1017.2
20260506042755 51 0 0.0 1.7 0.00 0.03 0.03 1017.2
20260506042256 51 25 0.0 1.7 0.00 0.03 0.03 1017.1
20260506041755 51 82 0.0 1.7 0.00 0.03 0.03 1017.1
20260506041255 51 0 0.0 0.0 0.00 0.03 0.03 1017.0
20260506040756 51 0 0.0 0.0 0.00 0.03 0.03 1016.9
20260506040255 51 0 0.0 0.0 0.00 0.03 0.03 1016.8
20260506035755 51 0 0.0 2.6 0.00 0.03 0.03 1016.9
20260506035257 51 82 0.0 2.6 0.00 0.03 0.03 1016.8
20260506035255 51 82 0.0 2.6 0.00 0.03 0.03 1016.8
20260506034755 51 357 0.0 2.6 0.00 0.03 0.03 1016.7
20260506034255 51 36 0.0 1.7 0.00 0.03 0.03 1016.7
20260506033755 51 0 0.0 1.7 0.00 0.03 0.03 1016.6
20260506032755 52 0 0.0 0.9 0.00 0.03 0.03 1016.6
20260506032255 51 357 0.0 3.5 0.00 0.03 0.03 1016.4
20260506031755 51 357 0.0 3.5 0.00 0.03 0.03 1016.4
20260506031255 51 357 0.0 3.5 0.00 0.03 0.03 1016.4
20260506030826 51 333 0.0 2.6 0.00 0.03 0.03 1016.3
20260506030755 51 333 0.0 2.6 0.00 0.03 0.03 1016.3
20260506030255 51 336 0.0 5.2 0.00 0.03 0.03 1016.3
20260506025755 51 336 0.9 5.2 0.00 0.03 0.03 1016.3
20260506025255 51 14 0.0 5.2 0.00 0.03 0.03 1016.3
20260506024754 52 299 0.0 1.7 0.00 0.03 0.03 1016.3
20260506024254 52 313 0.0 4.3 0.00 0.03 0.03 1016.2
20260506023754 52 305 0.0 4.3 0.00 0.03 0.03 1016.2
20260506023254 52 323 0.0 4.3 0.00 0.03 0.03 1016.2
20260506022754 52 301 0.0 3.5 0.00 0.03 0.03 1016.2
20260506022255 52 261 0.0 3.5 0.00 0.03 0.03 1016.2
20260506021754 52 261 0.0 3.5 0.00 0.03 0.03 1016.1
20260506021254 52 201 0.0 3.5 0.00 0.03 0.03 1016.1
20260506020754 52 348 0.0 3.5 0.00 0.03 0.03 1016.2
20260506020254 52 280 0.0 6.1 0.00 0.03 0.03 1016.2
20260506015255 52 285 3.5 6.1 0.00 0.03 0.03 1016.2
20260506014754 52 275 0.0 5.2 0.00 0.03 0.03 1016.3
20260506014254 52 291 1.7 5.2 0.00 0.03 0.03 1016.2
20260506013754 53 334 0.0 2.6 0.00 0.03 0.03 1016.1
20260506013254 53 285 0.9 2.6 0.00 0.03 0.03 1016.2
20260506012754 53 0 0.0 1.7 0.00 0.03 0.03 1016.1
20260506012255 53 322 0.0 1.7 0.00 0.03 0.03 1016.1
20260506011754 53 322 0.0 1.7 0.00 0.03 0.03 1016.2
20260506011255 53 275 0.0 5.2 0.00 0.03 0.03 1016.2
20260506005754 53 299 0.0 4.3 0.00 0.03 0.03 1016.2
20260506005255 53 281 0.0 4.3 0.00 0.03 0.03 1016.2
20260506004754 53 266 0.0 3.5 0.00 0.03 0.03 1016.2
20260506004254 54 299 0.9 3.5 0.00 0.03 0.03 1016.2
20260506003254 54 292 0.0 5.2 0.00 0.03 0.03 1016.2
20260506002754 54 278 0.0 5.2 0.00 0.03 0.03 1016.2
20260506002255 54 282 1.7 5.2 0.00 0.03 0.03 1016.2
20260506001754 54 254 0.0 7.0 0.00 0.03 0.03 1016.2
20260506001254 53 256 1.7 7.0 0.00 0.03 0.03 1016.3
20260506000255 53 256 1.7 5.2 0.00 0.03 0.03 1016.3
20260505235754 53 301 0.0 6.1 0.00 0.03 0.03 1016.3
20260505235255 54 280 0.0 6.1 0.00 0.03 0.03 1016.3
20260505234754 54 299 0.0 6.1 0.00 0.03 0.03 1016.2
20260505234254 54 243 0.9 4.3 0.00 0.03 0.03 1016.2
20260505233754 54 309 0.9 4.3 0.00 0.03 0.03 1016.2
20260505233254 54 231 2.6 4.3 0.00 0.03 0.03 1016.2
20260505232754 54 273 0.0 4.3 0.00 0.03 0.03 1016.3
20260505231754 53 266 0.0 6.1 0.00 0.03 0.03 1016.3
20260505231254 53 270 2.6 6.1 0.00 0.03 0.03 1016.3
20260505230754 54 270 0.0 5.2 0.00 0.03 0.03 1016.3
20260505225754 54 284 0.0 8.7 0.00 0.03 0.03 1016.4
20260505225254 54 264 4.3 8.7 0.00 0.03 0.03 1016.4
20260505224754 54 270 0.0 7.8 0.00 0.03 0.03 1016.6
20260505224254 55 250 0.0 7.8 0.00 0.03 0.03 1016.4
20260505223754 55 252 0.0 7.8 0.00 0.03 0.03 1016.4
20260505222754 56 228 1.7 7.8 0.00 0.03 0.03 1016.4
20260505222254 55 208 0.0 7.8 0.00 0.03 0.03 1016.4
20260505221754 55 232 1.7 7.8 0.00 0.03 0.03 1016.6
20260505221254 55 236 3.5 7.8 0.00 0.03 0.03 1016.6
20260505220754 55 233 2.6 7.8 0.00 0.03 0.03 1016.7
20260505220254 55 259 0.9 7.8 0.00 0.03 0.03 1016.7
20260505215753 55 201 2.6 7.8 0.00 0.03 0.03 1016.8
20260505215254 55 231 5.2 7.8 0.00 0.03 0.03 1016.8
20260505214753 55 229 1.7 6.1 0.00 0.03 0.03 1016.8
20260505214253 55 226 3.5 7.8 0.00 0.03 0.03 1016.8
20260505213753 54 226 3.5 7.8 0.00 0.03 0.03 1016.9
20260505213253 55 243 4.3 7.8 0.00 0.03 0.03 1016.9
20260505212254 55 236 4.3 7.0 0.00 0.03 0.03 1016.9
20260505211753 55 236 2.6 7.0 0.00 0.03 0.03 1016.9
20260505211253 54 245 2.6 5.2 0.00 0.03 0.03 1016.8
20260505210753 54 253 3.5 7.8 0.00 0.03 0.03 1016.7
20260505205753 54 242 3.5 7.8 0.00 0.03 0.03 1016.7
20260505205254 53 236 5.2 7.8 0.00 0.03 0.03 1016.7
20260505204753 53 357 3.5 7.8 0.00 0.03 0.03 1016.8
20260505204253 53 0 0.0 0.0 0.00 0.03 0.03 1016.9
20260505203753 54 0 0.0 0.0 0.00 0.03 0.03 1016.9
20260505203253 55 0 0.0 0.0 0.00 0.03 0.03 1016.9
20260505202756 55 0 0.0 0.9 0.00 0.03 0.03 1017.0
20260505201753 55 0 0.0 0.9 0.00 0.03 0.03 1017.0
20260505201253 54 144 0.0 0.9 0.00 0.03 0.03 1017.0
20260505200753 54 254 4.3 7.8 0.00 0.03 0.03 1017.0
20260505200253 55 228 2.6 7.8 0.00 0.03 0.03 1017.0
20260505195753 55 210 2.6 7.8 0.00 0.03 0.03 1016.9
20260505195254 55 224 0.0 7.0 0.00 0.03 0.03 1016.8
20260505194253 55 191 3.5 7.0 0.00 0.03 0.03 1016.8
20260505193755 55 189 2.6 6.1 0.00 0.03 0.03 1016.8
20260505193753 55 189 2.6 6.1 0.00 0.03 0.03 1016.8
20260505193253 55 180 2.6 6.1 0.00 0.03 0.03 1016.8
20260505192753 55 180 1.7 6.1 0.00 0.03 0.03 1016.8
20260505192255 54 151 2.6 7.0 0.00 0.03 0.03 1016.8
20260505191753 54 166 0.9 7.0 0.00 0.03 0.03 1016.8
20260505191254 54 180 3.5 7.0 0.00 0.03 0.03 1016.8
20260505190253 53 208 1.7 6.1 0.00 0.03 0.03 1016.7
20260505185753 53 193 3.5 6.1 0.00 0.03 0.03 1016.8
20260505185254 53 179 4.3 6.1 0.00 0.03 0.03 1016.7
20260505184753 53 210 0.9 6.1 0.00 0.03 0.03 1016.7
20260505184253 53 215 3.5 6.1 0.00 0.03 0.03 1016.7
20260505183753 53 222 3.5 6.1 0.00 0.03 0.03 1016.7
20260505183253 53 210 2.6 4.3 0.00 0.03 0.03 1016.6
20260505182753 53 210 0.0 7.0 0.00 0.03 0.03 1016.4
20260505182253 53 219 2.6 7.0 0.00 0.03 0.03 1016.4
20260505181753 53 182 5.2 7.0 0.00 0.03 0.03 1016.6
20260505181253 53 211 0.0 1.7 0.00 0.03 0.03 1016.4
20260505180753 53 151 0.0 1.7 0.00 0.03 0.03 1016.4
20260505180253 54 0 0.0 3.5 0.00 0.03 0.03 1016.3
20260505175753 53 0 0.0 3.5 0.00 0.03 0.03 1016.4
20260505174753 53 0 0.0 1.7 0.00 0.03 0.03 1016.4
20260505174253 53 180 0.0 1.7 0.00 0.03 0.03 1016.3
20260505173753 53 0 0.0 0.0 0.00 0.03 0.03 1016.3
20260505173253 52 0 0.0 0.0 0.00 0.03 0.03 1016.3
20260505172753 52 0 0.0 0.0 0.00 0.03 0.03 1016.2
20260505171753 52 180 0.0 2.6 0.00 0.03 0.03 1016.1
20260505170253 52 0 0.0 0.0 0.00 0.03 0.03 1016.1
20260505165752 52 0 0.0 0.0 0.00 0.03 0.03 1016.0
20260505165253 52 162 0.0 5.2 0.00 0.03 0.03 1016.0
20260505164752 51 201 0.0 5.2 0.00 0.03 0.03 1016.1
20260505163752 51 151 0.0 4.3 0.00 0.03 0.03 1015.9
20260505163252 52 135 0.0 3.5 0.00 0.03 0.03 1015.9
20260505162752 52 0 0.0 0.0 0.00 0.03 0.03 1016.0
20260505162253 52 0 0.0 0.0 0.00 0.03 0.03 1015.9
20260505161752 52 0 0.0 0.0 0.00 0.03 0.03 1016.0
20260505161252 52 0 0.0 0.0 0.00 0.03 0.03 1016.0
20260505160752 51 0 0.0 0.0 0.01 0.03 0.03 1015.9
20260505160253 51 0 0.0 0.0 0.01 0.03 0.03 1015.9
20260505153253 51 0 0.0 0.0 0.01 0.03 0.03 1015.8
20260505152754 51 0 0.0 0.0 0.01 0.03 0.03 1015.8
20260505152254 51 0 0.0 0.0 0.01 0.03 0.03 1015.9
20260505151753 51 0 0.0 0.0 0.01 0.03 0.03 1015.8
20260505150752 51 0 0.0 0.0 0.00 0.04 0.02 1015.7
20260505150252 51 0 0.0 0.0 0.00 0.04 0.02 1015.8
20260505140253 50 0 0.0 4.3 0.00 0.04 0.02 1015.3
20260505130253 50 168 0.0 8.7 0.00 0.05 0.02 1014.8
20260505124752 50 197 0.9 7.8 0.00 0.05 0.02 1014.8
20260505123755 50 134 1.7 6.1 0.00 0.05 0.02 1014.7
20260505123752 50 134 1.7 6.1 0.00 0.05 0.02 1014.7
20260505123252 50 197 0.9 6.1 0.00 0.05 0.02 1014.7
20260505122752 50 201 0.0 5.2 0.00 0.05 0.02 1014.7
20260505122253 50 205 0.0 5.2 0.00 0.05 0.02 1014.7
20260505121751 50 189 0.9 5.2 0.00 0.05 0.02 1014.7
20260505121252 50 184 0.0 7.0 0.00 0.05 0.02 1014.7
20260505120751 50 128 0.0 7.0 0.00 0.06 0.02 1014.7
20260505115752 50 191 2.6 7.0 0.00 0.06 0.02 1014.6
20260505115252 50 180 0.0 7.8 0.00 0.06 0.02 1014.6
20260505114751 50 205 1.7 7.8 0.00 0.06 0.02 1014.6
20260505114251 50 232 1.7 7.8 0.00 0.06 0.02 1014.5
20260505113756 50 175 1.7 7.0 0.00 0.06 0.02 1014.6
20260505113751 50 175 1.7 7.0 0.00 0.06 0.02 1014.6
20260505112751 50 221 2.6 11.3 0.00 0.06 0.02 1014.6
20260505112252 50 204 0.9 11.3 0.00 0.06 0.02 1014.6
20260505111751 50 222 0.9 8.7 0.00 0.06 0.02 1014.5
20260505110752 50 228 3.5 12.2 0.01 0.08 0.02 1014.6
20260505110253 50 228 5.2 12.2 0.01 0.08 0.02 1014.6
20260505101752 50 172 0.9 9.6 0.01 0.08 0.02 1014.5
20260505101251 50 218 5.2 9.6 0.01 0.08 0.02 1014.3
20260505100751 50 210 0.0 5.2 0.00 0.08 0.02 1014.4
20260505095751 50 142 0.0 8.7 0.00 0.08 0.01 1014.5
20260505095254 50 124 0.0 8.7 0.00 0.08 0.01 1014.5
20260505094751 50 187 1.7 8.7 0.00 0.08 0.01 1014.4
20260505094251 50 165 4.3 11.3 0.00 0.08 0.01 1014.3
20260505093751 50 184 0.9 11.3 0.00 0.08 0.01 1014.2
20260505090751 50 190 4.3 12.2 0.00 0.08 0.01 1014.1
20260505085752 50 187 3.5 11.3 0.00 0.08 0.01 1014.1
20260505084751 50 184 3.5 9.6 0.00 0.08 0.01 1014.1
20260505083751 50 203 5.2 11.3 0.00 0.08 0.01 1014.1
20260505082751 50 182 4.3 11.3 0.00 0.08 0.01 1014.2
20260505081751 50 226 3.5 15.6 0.01 0.08 0.01 1014.1